Home > Weather > Chattanooga > Past weeks

Flag for USA Past Weather in Chattanooga, Tennessee, USA — Yesterday and Last 2 Weeks

Now
84 °F

Broken clouds.


Feels Like: 88 °F
Forecast: 74 / 91 °F
Wind: 6 mph from Southwest

Location: Lovell Field

Current Time: Jul 30, 2016 at 8:37:24 PM

Latest Report: Jul 30, 2016 at 7:53 PM


Visibility: 10 mi

Pressure: 29.96 "Hg

Humidity: 63%

Dew Point: 70 °F

Location of ChattanoogaLocation

Past Weather in Chattanooga — Graph

°F

Chattanooga Temperature Yesterday

Maximum temperature yesterday: 89 °F (at 2:53 PM)
Minimum temperature yesterday: 75 °F (at 12:53 AM)
Average temperature yesterday: 82 °F

High & Low Weather Summary for the Past Weeks

 TemperatureHumidityPressure
High99 °F (Jul 20, 4:53 PM)94% (Jul 17, 1:53 AM)30.26 "Hg (Jul 17, 1:53 AM)
Low71 °F (Jul 17, 4:53 AM)27% (Jul 20, 4:53 PM)29.90 "Hg (Jul 28, 3:53 PM)
Average83 °F67%30.05 "Hg
* Reported Jul 15 6:53 PM — Jul 30 6:53 PM, Chattanooga, Weather by CustomWeather, © 2016

Note: Actual official high and low records may vary slightly from our data, if they occured in-between our weather recording intervals... More about our weather records

Advertising

Chattanooga Weather History for the Previous 24 Hours

Scroll right to see more
 ConditionsComfort  
Time TempWeatherWind HumidityBarometerVisibility
6:53 PM
Sat, Jul 30
85 °FBroken clouds.8 mph61%29.93 "Hg10 mi
5:53 PM87 °FBroken clouds.8 mph53%29.95 "Hg10 mi
4:53 PM89 °FBroken clouds.12 mph50%29.96 "Hg10 mi
3:53 PM92 °FBroken clouds.6 mph41%29.95 "Hg10 mi
2:53 PM91 °FBroken clouds.7 mph42%29.98 "Hg10 mi
1:53 PM90 °FBroken clouds.6 mph48%29.98 "Hg10 mi
12:53 PM86 °FBroken clouds.3 mph57%30.01 "Hg10 mi
11:53 AM82 °FBroken clouds.No wind70%30.02 "Hg10 mi
10:53 AM78 °FBroken clouds.3 mph79%30.02 "Hg10 mi
9:53 AM78 °FLight rain. Broken clouds.5 mph79%30.02 "Hg6 mi
8:53 AM79 °FBroken clouds.No wind77%30.00 "Hg10 mi
7:53 AM76 °FBroken clouds.3 mph85%29.99 "Hg10 mi
6:53 AM75 °FPartly cloudy.No wind88%29.97 "Hg7 mi
5:53 AM75 °FPassing clouds.3 mph88%29.96 "Hg7 mi
4:53 AM74 °FClear.No wind88%29.94 "Hg10 mi
3:53 AM75 °FClear.No wind82%29.93 "Hg10 mi
2:53 AM76 °FClear.No wind77%29.93 "Hg10 mi
1:53 AM76 °FClear.3 mph77%29.94 "Hg10 mi
12:53 AM77 °FClear.3 mph71%29.97 "Hg10 mi
11:53 PM
Fri, Jul 29
79 °FPartly cloudy.5 mph72%29.98 "Hg10 mi
10:53 PM82 °FPassing clouds.6 mph70%29.98 "Hg10 mi
9:53 PM84 °FPassing clouds.No wind63%29.96 "Hg10 mi
8:53 PM85 °FScattered clouds.8 mph61%29.93 "Hg10 mi
Weather by CustomWeather, © 2016

See weather overviewHow to use our weather pages